FW9014 Weather Reports


time (UTC)temp
F
wind
direction
speed
knots
gust
knots
rain 1hr
in
rain 24hr
in
rain mn
in
humidity
%
barometer
mb
20260502161553 67 103 1.7 7.8 0.00 0.03 0.01 64 1021.4
20260502151621 63 360 5.2 10.4 0.00 0.03 0.01 75 1021.5
20260502123051 54 37 6.1 11.3 0.00 0.02 0.00 93 1019.3
20260502121546 53 27 5.2 9.6 0.00 0.02 0.00 93 1019.2
20260502114554 53 16 6.1 11.3 0.00 0.03 0.00 93 1018.7
20260502113051 53 17 2.6 8.7 0.00 0.03 0.00 93 1018.4
20260502111548 53 360 5.2 9.6 0.00 0.03 0.00 93 1018.4
20260502110047 52 28 1.7 7.0 0.00 0.03 0.00 93 1018.3
20260502104545 52 0 0.0 5.2 0.00 0.03 0.00 93 1018.1
20260502103102 53 0 1.7 8.7 0.00 0.03 0.00 93 1018.1
20260502101559 53 0 3.5 8.7 0.00 0.03 0.00 93 1018.1
20260502100113 53 34 2.6 9.6 0.00 0.03 0.00 93 1017.9
20260502070051 53 15 1.7 7.0 0.00 0.04 0.00 94 1016.8
20260502064557 52 0 1.7 4.3 0.00 0.04 0.00 93 1017.0
20260502063052 52 0 0.0 6.1 0.00 0.04 0.00 93 1016.8
20260502061600 53 27 1.7 4.3 0.00 0.04 0.00 93 1017.1
20260502060050 53 26 1.7 6.1 0.00 0.04 0.00 93 1017.2
20260502054548 53 0 0.0 3.5 0.00 0.05 0.00 92 1017.2
20260502053052 53 0 0.0 3.5 0.00 0.05 0.00 92 1017.2
20260502051548 53 72 0.0 3.5 0.00 0.05 0.00 92 1017.3
20260502050045 53 0 0.9 6.1 0.00 0.05 0.00 91 1017.0
20260502044542 53 122 0.0 11.3 0.00 0.07 0.05 91 1017.1
20260502043059 53 64 0.9 7.8 0.00 0.07 0.05 92 1017.1
20260502041553 53 61 1.7 7.8 0.00 0.07 0.05 92 1017.4
20260502040058 54 63 2.6 7.8 0.00 0.07 0.05 93 1017.3
20260502034547 54 27 2.6 8.7 0.00 0.10 0.05 93 1017.3
20260502033048 54 52 2.6 11.3 0.01 0.10 0.05 93 1016.9
20260502031548 54 15 1.7 9.6 0.01 0.10 0.05 94 1016.5
20260502024602 55 11 2.6 8.7 0.01 0.12 0.05 94 1015.8
20260502023045 55 39 3.5 12.2 0.00 0.11 0.04 94 1016.0
20260502021600 55 17 2.6 7.0 0.00 0.11 0.04 94 1015.9
20260502020049 55 49 2.6 12.2 0.00 0.11 0.04 94 1015.5
20260502014549 55 39 2.6 11.3 0.00 0.11 0.04 94 1015.0
20260502013047 55 36 5.2 9.6 0.00 0.11 0.04 94 1014.5
20260502011548 55 34 3.5 8.7 0.00 0.11 0.04 94 1014.7
20260502010108 55 41 7.0 13.9 0.00 0.11 0.04 95 1014.9
20260502004550 55 24 4.3 10.4 0.00 0.11 0.04 94 1014.5
20260502003049 55 13 1.7 4.3 0.00 0.11 0.04 94 1014.5
20260502001548 55 39 0.9 5.2 0.00 0.11 0.04 94 1014.4
20260502000049 55 86 1.7 10.4 0.00 0.11 0.04 94 1013.6
20260501234556 55 53 1.7 7.0 0.00 0.11 0.04 94 1013.7
20260501233054 55 57 3.5 11.3 0.00 0.11 0.04 94 1012.4
20260501231548 55 42 2.6 10.4 0.00 0.11 0.04 94 1012.2
20260501230058 55 44 2.6 13.0 0.00 0.11 0.04 94 1012.3
20260501224548 56 58 6.1 15.6 0.00 0.11 0.04 93 1011.6
20260501223054 56 0 3.5 11.3 0.00 0.11 0.04 93 1013.5
20260501221552 57 74 1.7 9.6 0.00 0.11 0.04 94 1013.1
20260501220056 58 132 2.6 8.7 0.00 0.11 0.04 94 1013.4
20260501214554 58 33 3.5 12.2 0.00 0.11 0.04 94 1012.9
20260501213051 58 0 2.6 10.4 0.00 0.11 0.04 94 1011.7
20260501211557 58 60 1.7 9.6 0.00 0.11 0.04 94 1012.3
20260501210049 58 67 2.6 7.8 0.00 0.11 0.04 93 1012.4
20260501204616 58 27 0.0 5.2 0.00 0.11 0.04 93 1012.3
20260501203047 59 96 0.9 7.8 0.00 0.11 0.04 92 1012.5
20260501201549 59 50 5.2 11.3 0.00 0.11 0.04 92 1012.0
20260501200049 59 38 0.9 7.8 0.00 0.11 0.04 92 1012.5
20260501194558 59 103 1.7 10.4 0.00 0.11 0.04 93 1011.2
20260501193047 59 0 1.7 9.6 0.00 0.11 0.04 93 1011.9
20260501191552 59 9 4.3 15.6 0.00 0.11 0.04 93 1010.5
20260501190048 59 87 6.1 21.7 0.00 0.11 0.04 94 1010.4
20260501184550 59 57 4.3 18.2 0.00 0.12 0.04 94 1009.5
20260501183053 59 117 8.7 17.4 0.00 0.12 0.04 94 1010.0
20260501181552 59 50 2.6 13.0 0.01 0.12 0.04 95 1010.9
20260501180048 59 59 5.2 13.0 0.01 0.12 0.04 95 1012.0
20260501174547 59 55 5.2 13.0 0.01 0.12 0.04 95 1011.8
20260501173052 59 39 4.3 13.0 0.01 0.12 0.04 96 1012.3
20260501171550 59 75 5.2 14.8 0.00 0.11 0.03 96 1012.7
20260501170049 59 52 2.6 8.7 0.00 0.11 0.03 96 1013.5
20260501164553 59 74 3.5 10.4 0.00 0.11 0.03 96 1014.0
20260501163048 59 109 2.6 8.7 0.00 0.11 0.03 96 1014.3